EW2129 Weather Reports


Display with metric or nautical units.
time (UTC)temp
F
wind
direction
speed
MPH
gust
MPH
rain 1hr
in
rain 24hr
in
rain mn
in
humidity
%
barometer
mb
20260510033009 50 264 0.0 0.0 0.00 0.32 0.32 90 1004.9
20260510031510 50 360 0.0 4.0 0.00 0.32 0.32 90 1004.9
20260510030040 51 198 1.0 3.0 0.00 0.32 0.32 89 1004.8
20260510024540 51 196 0.0 2.0 0.00 0.32 0.32 89 1004.4
20260510023046 51 194 2.0 5.0 0.00 0.32 0.32 89 1004.3
20260510021542 52 197 3.0 5.0 0.00 0.32 0.32 88 1004.3
20260510020036 52 360 2.0 5.0 0.00 0.32 0.32 88 1004.0
20260510014535 52 360 1.0 5.0 0.00 0.32 0.32 88 1003.9
20260510013036 52 192 2.0 5.0 0.00 0.32 0.32 88 1003.5
20260510011536 52 198 3.0 7.0 0.00 0.32 0.32 87 1003.2
20260510010034 53 184 5.0 9.0 0.00 0.32 0.32 87 1003.0
20260510004533 53 168 4.0 6.0 0.00 0.32 0.32 86 1002.8
20260510003001 54 360 2.0 8.0 0.00 0.32 0.32 85 1002.6
20260510001600 54 360 4.0 10.0 0.00 0.32 0.32 85 1002.4
20260510000056 54 360 4.0 7.0 0.00 0.32 0.32 85 1002.0
20260509234655 53 192 5.0 12.0 0.00 0.32 0.32 85 1001.8
20260509233102 53 194 6.0 14.0 0.00 0.32 0.32 84 1001.6
20260509231602 53 199 7.0 12.0 0.04 0.32 0.32 84 1001.4
20260509230054 53 196 8.0 17.0 0.09 0.32 0.32 85 1001.4
20260509224551 53 194 7.0 14.0 0.28 0.32 0.32 88 1001.5
20260509223050 51 360 9.0 18.0 0.32 0.32 0.32 88 1001.6
20260509221554 50 200 12.0 20.0 0.28 0.28 0.28 88 1002.4
20260509220048 52 360 10.0 28.0 0.23 0.23 0.23 86 1003.0
20260509214546 58 360 13.0 25.0 0.02 0.02 0.02 80 1002.3
20260509213059 60 360 6.0 17.0 0.00 0.00 0.00 76 1001.1
20260509211607 60 360 7.0 14.0 0.00 0.00 0.00 75 1000.8
20260509210042 61 159 6.0 19.0 0.00 0.00 0.00 74 1000.5
20260509204556 61 360 9.0 20.0 0.00 0.00 0.00 73 1000.4
20260509203044 61 360 12.0 23.0 0.00 0.00 0.00 72 1000.6
20260509201508 61 180 8.0 26.0 0.00 0.00 0.00 73 1000.6
20260509200008 61 197 13.0 21.0 0.00 0.00 0.00 73 1000.7
20260509194538 61 169 11.0 23.0 0.00 0.00 0.00 73 1001.3
20260509193034 61 360 11.0 19.0 0.00 0.00 0.00 72 1001.8
20260509191531 62 360 13.0 25.0 0.00 0.00 0.00 71 1001.8
20260509190029 63 173 10.0 22.0 0.00 0.00 0.00 68 1001.4
20260509184528 63 360 14.0 22.0 0.00 0.00 0.00 68 1001.5
20260509183026 63 360 9.0 24.0 0.00 0.00 0.00 69 1001.7
20260509181522 63 184 12.0 23.0 0.00 0.00 0.00 69 1001.8
20260509180020 62 192 10.0 22.0 0.00 0.00 0.00 69 1002.0
20260509174518 61 360 11.0 23.0 0.00 0.00 0.00 70 1002.2
20260509173016 62 189 10.0 25.0 0.00 0.00 0.00 70 1002.4
20260509171511 62 196 11.0 25.0 0.00 0.00 0.00 69 1002.8
20260509170011 63 192 12.0 20.0 0.00 0.00 0.00 68 1003.1
20260509164509 62 175 11.0 22.0 0.00 0.00 0.00 69 1003.1
20260509163008 63 198 10.0 24.0 0.00 0.00 0.00 70 1003.0
20260509161501 62 175 10.0 19.0 0.00 0.00 0.00 68 1003.1
20260509160101 62 184 8.0 19.0 0.00 0.00 0.00 69 1003.3
20260509154555 62 184 11.0 20.0 0.00 0.00 0.00 71 1003.7
20260509153053 60 197 7.0 16.0 0.00 0.00 0.00 72 1003.9
20260509151548 60 174 8.0 19.0 0.00 0.00 0.00 73 1004.0
20260509150044 59 360 11.0 18.0 0.00 0.00 0.00 76 1004.0
20260509144543 58 360 6.0 17.0 0.00 0.00 0.00 79 1004.0
20260509143039 57 181 7.0 15.0 0.00 0.00 0.00 81 1004.2
20260509141534 56 179 8.0 16.0 0.00 0.00 0.00 83 1004.2
20260509140031 55 175 9.0 15.0 0.00 0.00 0.00 85 1004.4
20260509134527 54 360 9.0 14.0 0.00 0.00 0.00 86 1004.5
20260509133024 54 360 8.0 14.0 0.00 0.00 0.00 87 1004.6
20260509131528 53 177 7.0 13.0 0.00 0.00 0.00 88 1004.7
20260509130020 53 182 7.0 15.0 0.00 0.00 0.00 89 1004.8
20260509124515 52 198 5.0 11.0 0.00 0.00 0.00 90 1004.9
20260509123011 51 188 6.0 12.0 0.00 0.00 0.00 90 1004.8
20260509121504 50 360 5.0 9.0 0.00 0.00 0.00 91 1004.8
20260509120101 49 155 4.0 7.0 0.00 0.00 0.00 92 1004.9
20260509120009 49 188 4.0 7.0 0.00 0.00 0.00 92 1005.0
20260509114600 49 157 2.0 6.0 0.00 0.00 0.00 92 1005.1
20260509113055 48 153 1.0 6.0 0.00 0.00 0.00 91 1005.0
20260509111547 47 182 2.0 9.0 0.00 0.00 0.00 91 1005.0
20260509110042 47 180 5.0 10.0 0.00 0.00 0.00 91 1004.6
20260509104539 47 146 4.0 8.0 0.00 0.03 0.00 90 1004.7
20260509103036 47 161 3.0 10.0 0.00 0.03 0.00 90 1004.7
20260509101528 47 173 4.0 8.0 0.00 0.03 0.00 89 1004.9
20260509100026 48 179 4.0 8.0 0.00 0.03 0.00 88 1004.9
20260509094523 48 189 5.0 9.0 0.00 0.03 0.00 88 1005.1
20260509093025 48 360 4.0 9.0 0.00 0.03 0.00 88 1005.0
20260509091526 48 157 5.0 9.0 0.00 0.03 0.00 87 1005.0
20260509090014 47 201 6.0 11.0 0.00 0.03 0.00 86 1005.3
20260509084518 47 178 7.0 12.0 0.00 0.04 0.03 84 1005.6
20260509083010 46 187 4.0 10.0 0.00 0.04 0.03 82 1005.7
20260509081510 46 190 3.0 7.0 0.00 0.04 0.03 80 1005.7
20260509080058 46 360 5.0 10.0 0.00 0.04 0.03 78 1005.7
20260509074539 46 189 4.0 10.0 0.00 0.04 0.03 77 1005.6
20260509073018 46 181 4.0 8.0 0.00 0.04 0.03 74 1005.7
20260509071508 46 182 6.0 9.0 0.00 0.04 0.03 72 1005.7
20260509070036 46 171 5.0 10.0 0.00 0.04 0.03 70 1005.7
20260509064535 46 171 4.0 8.0 0.00 0.04 0.03 68 1005.7
20260509063032 46 139 3.0 8.0 0.00 0.04 0.03 68 1006.0
20260509061527 46 169 3.0 6.0 0.00 0.04 0.03 67 1006.2
20260509060026 46 172 3.0 7.0 0.00 0.04 0.03 67 1006.6
20260509054530 46 165 3.0 9.0 0.00 0.04 0.03 68 1006.8
20260509053018 46 182 4.0 10.0 0.00 0.04 0.03 69 1007.0
20260509051517 45 183 4.0 9.0 0.00 0.04 0.03 70 1007.1
20260509050020 45 194 5.0 9.0 0.00 0.04 0.03 70 1007.2
20260509044516 46 186 6.0 10.0 0.00 0.04 0.03 69 1007.3
20260509043052 46 191 5.0 11.0 0.00 0.04 0.03 68 1007.5
20260509041543 46 181 6.0 10.0 0.00 0.04 0.03 69 1007.7
20260509040012 46 180 5.0 10.0 0.00 0.04 0.03 70 1007.7
20260509034515 46 180 5.0 10.0 0.00 0.04 0.03 70 1007.7